TimeCST,TemperatureF,Dew PointF,Humidity,Sea Level PressureIn,VisibilityMPH,Wind Direction,Wind SpeedMPH,Gust SpeedMPH,PrecipitationIn,Events,Conditions,WindDirDegrees,DateUTC
12:53 AM,44.1,41.0,89,30.12,6.0,NW,5.8,-,0.00,,Overcast,310,2013-12-09 06:53:00
1:12 AM,42.8,39.2,87,30.12,2.5,NW,9.2,-,N/A,,Overcast,310,2013-12-09 07:12:00
1:25 AM,42.8,39.2,87,30.12,3.0,NW,5.8,-,N/A,,Overcast,310,2013-12-09 07:25:00
1:53 AM,43.0,39.0,86,30.13,6.0,NW,6.9,-,N/A,,Overcast,310,2013-12-09 07:53:00
2:31 AM,42.8,39.2,87,30.13,9.0,NW,5.8,-,N/A,,Overcast,310,2013-12-09 08:31:00
2:53 AM,42.1,37.9,85,30.14,6.0,NNW,6.9,-,N/A,,Overcast,330,2013-12-09 08:53:00
3:53 AM,41.0,37.0,86,30.15,10.0,NW,6.9,-,N/A,,Overcast,320,2013-12-09 09:53:00
4:53 AM,39.0,35.1,86,30.18,10.0,NW,9.2,-,N/A,,Overcast,320,2013-12-09 10:53:00
5:53 AM,37.9,34.0,86,30.20,8.0,NNW,8.1,-,N/A,,Overcast,340,2013-12-09 11:53:00
6:53 AM,37.0,33.1,86,30.21,9.0,NNW,9.2,-,N/A,,Overcast,340,2013-12-09 12:53:00
7:53 AM,37.0,34.0,89,30.22,7.0,North,4.6,-,N/A,,Overcast,360,2013-12-09 13:53:00
8:53 AM,37.0,33.1,86,30.23,10.0,NNW,5.8,-,N/A,,Overcast,340,2013-12-09 14:53:00
9:53 AM,37.0,32.0,82,30.24,10.0,NNW,5.8,-,N/A,,Overcast,340,2013-12-09 15:53:00
10:53 AM,37.9,33.1,83,30.24,9.0,North,3.5,-,N/A,,Overcast,350,2013-12-09 16:53:00
11:53 AM,37.9,33.1,83,30.23,10.0,Variable,3.5,-,N/A,,Overcast,0,2013-12-09 17:53:00
12:53 PM,37.0,32.0,82,30.23,10.0,NNW,9.2,-,N/A,,Overcast,330,2013-12-09 18:53:00
1:53 PM,37.0,32.0,82,30.21,10.0,NNW,8.1,-,N/A,,Overcast,340,2013-12-09 19:53:00
2:53 PM,37.0,32.0,82,30.22,8.0,NNE,4.6,-,N/A,,Overcast,30,2013-12-09 20:53:00
3:34 PM,37.4,30.2,75,30.20,10.0,NE,5.8,-,N/A,,Overcast,50,2013-12-09 21:34:00
3:53 PM,37.0,30.9,79,30.21,10.0,NE,4.6,-,N/A,,Overcast,50,2013-12-09 21:53:00
4:53 PM,37.0,30.9,79,30.21,10.0,NE,4.6,-,N/A,,Overcast,40,2013-12-09 22:53:00
5:53 PM,37.0,30.9,79,30.19,10.0,ENE,8.1,-,N/A,,Overcast,60,2013-12-09 23:53:00
6:40 PM,37.4,30.2,75,30.17,10.0,NE,10.4,-,N/A,,Overcast,50,2013-12-10 00:40:00
6:53 PM,36.0,30.9,82,30.19,10.0,NE,8.1,-,N/A,,Overcast,50,2013-12-10 00:53:00
7:53 PM,36.0,30.9,82,30.16,10.0,ENE,6.9,-,N/A,,Overcast,60,2013-12-10 01:53:00
8:53 PM,37.0,32.0,82,30.19,10.0,East,3.5,-,0.01,,Overcast,80,2013-12-10 02:53:00
9:26 PM,37.4,32.0,81,30.16,6.0,North,4.6,-,0.05,Rain,Light Rain,360,2013-12-10 03:26:00
9:39 PM,35.6,32.0,87,30.15,7.0,Variable,4.6,-,0.05,,Overcast,0,2013-12-10 03:39:00
9:53 PM,36.0,32.0,86,30.15,5.0,North,6.9,-,0.06,Rain,Light Rain,360,2013-12-10 03:53:00
10:53 PM,35.1,30.9,85,30.13,6.0,North,6.9,-,0.02,,Overcast,360,2013-12-10 04:53:00
11:53 PM,35.1,30.9,85,30.17,4.0,NNW,5.8,-,0.09,Rain,Light Rain,340,2013-12-10 05:53:00